Location: Fontevrault
(47.1823°N, 0.0493°E)
Time: 08:28:22
(UTC+00:00)

NOSS 3-2 (C) - Pass Details

Date: 16 June 2021
Orbit: 778 x 1434 km, 63.4° (Epoch: 14 July)

Event Time Altitude Azimuth Distance (km) Brightness Sun altitude
Rises 21:09:36 0° 227° (SW) 3,333 6.3 -9.6°
Reaches altitude 10° 21:11:55 10° 229° (SW) 2,455 5.6 -9.9°
Maximum altitude 21:17:33 70° 314° (NW) 980 3.8 -10.4°
Drops below altitude 10° 21:24:09 10° 38° (NE) 2,852 6.2 -11.1°
Sets 21:27:01 0° 41° (NE) 3,914 6.8 -11.4°
